Time,TemperatureF,DewpointF,PressureIn,WindDirection,WindDirectionDegrees,WindSpeedMPH,WindSpeedGustMPH,Humidity,HourlyPrecipIn,Conditions,Clouds,dailyrainin,SoftwareType,DateUTC
2013-04-08 00:02:00,18.5,17.8,23.96,North,0,19.0,23.0,97,0.00,,,0.00,meteohub,2013-04-08 06:02:00,
2013-04-08 00:07:00,18.5,17.8,23.96,North,0,19.0,23.0,97,0.00,,,0.00,meteohub,2013-04-08 06:07:00,
2013-04-08 00:12:00,18.5,17.8,23.96,North,0,17.0,23.0,97,0.00,,,0.00,meteohub,2013-04-08 06:12:00,
2013-04-08 00:17:00,18.5,17.8,23.96,North,0,18.0,19.0,97,0.00,,,0.00,meteohub,2013-04-08 06:17:00,
2013-04-08 00:22:00,18.3,17.6,23.96,North,0,21.0,21.0,97,0.00,,,0.00,meteohub,2013-04-08 06:22:00,
2013-04-08 00:27:00,18.0,17.2,23.97,North,0,18.0,22.0,97,0.00,,,0.00,meteohub,2013-04-08 06:27:00,
2013-04-08 00:32:00,18.5,17.8,23.97,North,0,15.0,22.0,97,0.00,,,0.00,meteohub,2013-04-08 06:32:00,
2013-04-08 00:37:00,18.0,17.2,23.96,North,0,17.0,22.0,97,0.00,,,0.00,meteohub,2013-04-08 06:37:00,
2013-04-08 00:42:00,18.0,17.2,23.97,North,0,18.0,20.0,97,0.00,,,0.00,meteohub,2013-04-08 06:42:00,
2013-04-08 00:52:00,18.0,17.2,23.96,North,0,19.0,21.0,97,0.00,,,0.00,meteohub,2013-04-08 06:52:00,
2013-04-08 00:57:00,17.8,17.1,23.97,North,0,19.0,21.0,97,0.00,,,0.00,meteohub,2013-04-08 06:57:00,
2013-04-08 01:02:00,17.8,17.1,23.97,North,0,17.0,21.0,97,0.00,,,0.00,meteohub,2013-04-08 07:02:00,
2013-04-08 01:12:00,17.6,16.9,23.96,North,0,20.0,20.0,97,0.00,,,0.00,meteohub,2013-04-08 07:12:00,
2013-04-08 01:17:00,17.4,16.5,23.96,North,0,22.0,22.0,96,0.00,,,0.00,meteohub,2013-04-08 07:17:00,
2013-04-08 01:22:00,17.2,16.3,23.96,North,0,18.0,22.0,96,0.00,,,0.00,meteohub,2013-04-08 07:22:00,
2013-04-08 01:27:00,17.1,16.2,23.97,North,0,17.0,22.0,96,0.00,,,0.00,meteohub,2013-04-08 07:27:00,
2013-04-08 01:37:00,17.1,16.2,23.97,North,0,18.0,21.0,96,0.00,,,0.00,meteohub,2013-04-08 07:37:00,
2013-04-08 01:42:00,17.1,16.2,23.98,North,0,17.0,19.0,96,0.00,,,0.00,meteohub,2013-04-08 07:42:00,
2013-04-08 01:47:00,17.1,16.2,23.99,North,0,16.0,19.0,96,0.00,,,0.00,meteohub,2013-04-08 07:47:00,
2013-04-08 01:57:00,16.9,16.0,23.99,North,0,17.0,19.0,96,0.00,,,0.00,meteohub,2013-04-08 07:57:00,
2013-04-08 02:02:00,16.9,16.0,23.99,North,0,15.0,20.0,96,0.00,,,0.00,meteohub,2013-04-08 08:02:00,
2013-04-08 02:07:00,16.9,16.0,23.99,North,0,15.0,20.0,96,0.00,,,0.00,meteohub,2013-04-08 08:07:00,
2013-04-08 02:12:00,16.7,15.8,23.99,North,0,14.0,19.0,96,0.00,,,0.00,meteohub,2013-04-08 08:12:00,
2013-04-08 02:17:00,16.7,15.8,23.99,North,0,14.0,16.0,96,0.00,,,0.00,meteohub,2013-04-08 08:17:00,
2013-04-08 02:22:00,16.7,15.8,23.98,North,0,17.0,17.0,96,0.00,,,0.00,meteohub,2013-04-08 08:22:00,
2013-04-08 02:27:00,16.5,15.6,23.98,North,0,17.0,17.0,96,0.00,,,0.00,meteohub,2013-04-08 08:27:00,
2013-04-08 02:32:00,16.5,15.6,23.98,North,0,15.0,17.0,96,0.00,,,0.00,meteohub,2013-04-08 08:32:00,
2013-04-08 02:37:00,16.5,15.6,23.98,North,0,13.0,17.0,96,0.00,,,0.00,meteohub,2013-04-08 08:37:00,
2013-04-08 02:47:00,16.5,15.6,23.98,North,0,14.0,15.0,96,0.00,,,0.00,meteohub,2013-04-08 08:47:00,
2013-04-08 02:52:00,16.5,15.6,23.97,North,0,15.0,15.0,96,0.00,,,0.00,meteohub,2013-04-08 08:52:00,
2013-04-08 02:57:00,16.5,15.6,23.98,North,0,17.0,17.0,96,0.00,,,0.00,meteohub,2013-04-08 08:57:00,
2013-04-08 03:02:00,16.3,15.4,23.99,North,0,17.0,17.0,96,0.00,,,0.00,meteohub,2013-04-08 09:02:00,
2013-04-08 03:07:00,16.3,15.4,23.98,North,0,17.0,17.0,96,0.00,,,0.00,meteohub,2013-04-08 09:07:00,
2013-04-08 03:17:00,15.8,14.9,23.99,North,0,15.0,17.0,96,0.00,,,0.00,meteohub,2013-04-08 09:17:00,
2013-04-08 03:22:00,15.8,14.5,23.99,North,0,15.0,17.0,95,0.00,,,0.00,meteohub,2013-04-08 09:22:00,
2013-04-08 03:27:00,15.8,14.9,23.99,North,0,14.0,17.0,96,0.00,,,0.00,meteohub,2013-04-08 09:27:00,
2013-04-08 03:37:00,15.6,14.4,24.00,North,0,13.0,16.0,95,0.00,,,0.00,meteohub,2013-04-08 09:37:00,
2013-04-08 03:42:00,15.6,14.4,24.00,North,0,11.0,15.0,95,0.00,,,0.00,meteohub,2013-04-08 09:42:00,
2013-04-08 03:47:00,15.4,14.2,24.00,North,0,12.0,14.0,95,0.00,,,0.00,meteohub,2013-04-08 09:47:00,
2013-04-08 03:52:00,15.3,14.0,24.00,North,0,12.0,14.0,95,0.00,,,0.00,meteohub,2013-04-08 09:52:00,
2013-04-08 03:57:00,15.1,13.8,23.99,North,0,12.0,13.0,95,0.00,,,0.00,meteohub,2013-04-08 09:57:00,
2013-04-08 04:02:00,15.1,13.8,23.99,North,0,12.0,13.0,95,0.00,,,0.00,meteohub,2013-04-08 10:02:00,
2013-04-08 04:07:00,15.1,13.8,23.99,North,0,12.0,13.0,95,0.00,,,0.00,meteohub,2013-04-08 10:07:00,
2013-04-08 04:17:00,14.9,13.6,24.01,North,0,9.0,13.0,95,0.00,,,0.00,meteohub,2013-04-08 10:17:00,
2013-04-08 04:27:00,14.5,13.5,24.01,North,0,10.0,12.0,95,0.00,,,0.00,meteohub,2013-04-08 10:27:00,
2013-04-08 04:37:00,14.2,12.7,24.01,North,0,9.0,11.0,94,0.00,,,0.00,meteohub,2013-04-08 10:37:00,
2013-04-08 04:47:00,14.0,12.6,24.01,North,0,7.0,10.0,94,0.00,,,0.00,meteohub,2013-04-08 10:47:00,
2013-04-08 04:52:00,13.6,12.2,24.01,North,0,9.0,10.0,94,0.00,,,0.00,meteohub,2013-04-08 10:52:00,
2013-04-08 05:02:00,13.6,12.2,24.01,North,0,8.0,9.0,94,0.00,,,0.00,meteohub,2013-04-08 11:02:00,
2013-04-08 05:12:00,13.5,12.0,24.01,North,0,10.0,10.0,94,0.00,,,0.00,meteohub,2013-04-08 11:12:00,
2013-04-08 05:17:00,13.5,12.0,24.01,North,0,9.0,10.0,94,0.00,,,0.00,meteohub,2013-04-08 11:17:00,
2013-04-08 05:27:00,13.3,11.8,24.01,North,0,9.0,10.0,94,0.00,,,0.00,meteohub,2013-04-08 11:27:00,
2013-04-08 05:32:00,13.1,11.7,24.01,North,0,8.0,9.0,94,0.00,,,0.00,meteohub,2013-04-08 11:32:00,
2013-04-08 05:37:00,12.9,11.5,24.02,North,0,8.0,9.0,94,0.00,,,0.00,meteohub,2013-04-08 11:37:00,
2013-04-08 05:42:00,12.9,11.5,24.02,North,0,7.0,9.0,94,0.00,,,0.00,meteohub,2013-04-08 11:42:00,
2013-04-08 05:52:00,12.6,11.1,24.02,North,0,8.0,8.0,94,0.00,,,0.00,meteohub,2013-04-08 11:52:00,
2013-04-08 05:57:00,12.6,11.1,24.03,North,0,8.0,8.0,94,0.00,,,0.00,meteohub,2013-04-08 11:57:00,
2013-04-08 06:07:00,12.4,10.9,24.03,North,0,8.0,8.0,94,0.00,,,0.00,meteohub,2013-04-08 12:07:00,
2013-04-08 06:12:00,12.0,10.4,24.03,North,0,8.0,8.0,93,0.00,,,0.00,meteohub,2013-04-08 12:12:00,
2013-04-08 06:17:00,11.8,10.2,24.03,North,0,7.0,8.0,93,0.00,,,0.00,meteohub,2013-04-08 12:17:00,
2013-04-08 06:22:00,11.8,10.2,24.03,North,0,8.0,8.0,93,0.00,,,0.00,meteohub,2013-04-08 12:22:00,
2013-04-08 06:27:00,11.7,10.0,24.03,North,0,8.0,8.0,93,0.00,,,0.00,meteohub,2013-04-08 12:27:00,
2013-04-08 06:32:00,11.5,9.9,24.03,North,0,8.0,8.0,93,0.00,,,0.00,meteohub,2013-04-08 12:32:00,
2013-04-08 06:37:00,11.3,9.7,24.03,North,0,8.0,8.0,93,0.00,,,0.00,meteohub,2013-04-08 12:37:00,
2013-04-08 06:42:00,11.1,9.5,24.03,North,0,9.0,9.0,93,0.00,,,0.00,meteohub,2013-04-08 12:42:00,
2013-04-08 06:47:00,11.1,9.5,24.04,North,0,8.0,10.0,93,0.00,,,0.00,meteohub,2013-04-08 12:47:00,
2013-04-08 06:52:00,10.9,9.3,24.04,North,0,8.0,10.0,93,0.00,,,0.00,meteohub,2013-04-08 12:52:00,
2013-04-08 06:57:00,10.8,9.1,24.04,North,0,8.0,10.0,93,0.00,,,0.00,meteohub,2013-04-08 12:57:00,
2013-04-08 07:07:00,10.8,9.1,24.04,North,0,8.0,8.0,93,0.00,,,0.00,meteohub,2013-04-08 13:07:00,
2013-04-08 07:12:00,9.5,7.9,24.04,North,0,10.0,10.0,93,0.00,,,0.00,meteohub,2013-04-08 13:12:00,
2013-04-08 07:17:00,10.2,8.4,24.04,North,0,9.0,10.0,92,0.00,,,0.00,meteohub,2013-04-08 13:17:00,
2013-04-08 07:22:00,10.0,8.2,24.05,North,0,10.0,10.0,92,0.00,,,0.00,meteohub,2013-04-08 13:22:00,
2013-04-08 07:27:00,10.0,8.2,24.05,North,0,8.0,10.0,92,0.00,,,0.00,meteohub,2013-04-08 13:27:00,
2013-04-08 07:32:00,9.9,8.1,24.05,North,0,10.0,10.0,92,0.00,,,0.00,meteohub,2013-04-08 13:32:00,
2013-04-08 07:37:00,9.9,8.1,24.06,North,0,8.0,10.0,92,0.00,,,0.00,meteohub,2013-04-08 13:37:00,
2013-04-08 07:42:00,9.9,8.1,24.06,North,0,8.0,10.0,92,0.00,,,0.00,meteohub,2013-04-08 13:42:00,
2013-04-08 07:47:00,9.9,8.1,24.06,North,0,8.0,10.0,92,0.00,,,0.00,meteohub,2013-04-08 13:47:00,
2013-04-08 07:52:00,9.9,8.2,24.07,North,0,9.0,9.0,93,0.00,,,0.00,meteohub,2013-04-08 13:52:00,
2013-04-08 07:57:00,9.9,8.2,24.07,North,0,8.0,9.0,93,0.00,,,0.00,meteohub,2013-04-08 13:57:00,
2013-04-08 08:02:00,9.9,8.1,24.07,North,0,8.0,10.0,92,0.00,,,0.00,meteohub,2013-04-08 14:02:00,
2013-04-08 08:12:00,10.2,8.6,24.07,North,0,8.0,9.0,93,0.00,,,0.00,meteohub,2013-04-08 14:12:00,
2013-04-08 08:17:00,10.4,8.8,24.08,North,0,8.0,9.0,93,0.00,,,0.00,meteohub,2013-04-08 14:17:00,
2013-04-08 08:22:00,10.6,9.0,24.08,North,0,8.0,9.0,93,0.00,,,0.00,meteohub,2013-04-08 14:22:00,
2013-04-08 08:27:00,10.6,9.0,24.08,North,0,8.0,9.0,93,0.00,,,0.00,meteohub,2013-04-08 14:27:00,
2013-04-08 08:32:00,10.6,9.0,24.08,North,0,7.0,9.0,93,0.00,,,0.00,meteohub,2013-04-08 14:32:00,
2013-04-08 08:37:00,10.4,8.8,24.08,North,0,8.0,8.0,93,0.00,,,0.00,meteohub,2013-04-08 14:37:00,
2013-04-08 08:42:00,10.4,8.8,24.08,North,0,8.0,8.0,93,0.00,,,0.00,meteohub,2013-04-08 14:42:00,
2013-04-08 08:52:00,10.6,9.0,24.08,North,0,8.0,8.0,93,0.00,,,0.00,meteohub,2013-04-08 14:52:00,
2013-04-08 08:57:00,10.6,9.0,24.08,North,0,9.0,9.0,93,0.00,,,0.00,meteohub,2013-04-08 14:57:00,
2013-04-08 09:02:00,10.6,9.0,24.09,North,0,9.0,9.0,93,0.00,,,0.00,meteohub,2013-04-08 15:02:00,
2013-04-08 09:07:00,10.6,9.0,24.08,North,0,9.0,9.0,93,0.00,,,0.00,meteohub,2013-04-08 15:07:00,
2013-04-08 09:17:00,10.6,9.0,24.09,North,0,8.0,10.0,93,0.00,,,0.00,meteohub,2013-04-08 15:17:00,
2013-04-08 09:22:00,10.8,9.1,24.09,North,0,8.0,10.0,93,0.00,,,0.00,meteohub,2013-04-08 15:22:00,
2013-04-08 09:27:00,10.9,9.3,24.09,North,0,7.0,9.0,93,0.00,,,0.00,meteohub,2013-04-08 15:27:00,
2013-04-08 09:32:00,10.9,9.3,24.09,North,0,8.0,9.0,93,0.00,,,0.00,meteohub,2013-04-08 15:32:00,
2013-04-08 09:42:00,10.8,9.0,24.10,North,0,8.0,10.0,92,0.00,,,0.00,meteohub,2013-04-08 15:42:00,
2013-04-08 09:47:00,10.6,8.8,24.10,North,0,8.0,10.0,92,0.00,,,0.00,meteohub,2013-04-08 15:47:00,
2013-04-08 09:52:00,10.6,8.8,24.10,North,0,8.0,10.0,92,0.00,,,0.00,meteohub,2013-04-08 15:52:00,
2013-04-08 09:57:00,10.8,9.0,24.10,North,0,9.0,9.0,92,0.00,,,0.00,meteohub,2013-04-08 15:57:00,
2013-04-08 10:07:00,10.8,9.0,24.11,North,0,8.0,9.0,92,0.00,,,0.00,meteohub,2013-04-08 16:07:00,
2013-04-08 10:12:00,10.6,8.4,24.11,North,0,8.0,9.0,91,0.00,,,0.00,meteohub,2013-04-08 16:12:00,
2013-04-08 10:17:00,10.8,8.6,24.11,North,0,8.0,9.0,91,0.00,,,0.00,meteohub,2013-04-08 16:17:00,
2013-04-08 10:22:00,10.8,9.0,24.11,North,0,8.0,9.0,92,0.00,,,0.00,meteohub,2013-04-08 16:22:00,
2013-04-08 10:32:00,10.4,8.2,24.11,North,0,8.0,9.0,91,0.00,,,0.00,meteohub,2013-04-08 16:32:00,
2013-04-08 10:37:00,10.4,8.2,24.11,North,0,8.0,9.0,91,0.00,,,0.00,meteohub,2013-04-08 16:37:00,
2013-04-08 10:47:00,10.4,8.2,24.11,North,0,8.0,9.0,91,0.00,,,0.00,meteohub,2013-04-08 16:47:00,
2013-04-08 10:52:00,10.8,8.6,24.12,North,0,9.0,10.0,91,0.00,,,0.00,meteohub,2013-04-08 16:52:00,
2013-04-08 10:57:00,11.1,9.0,24.12,North,0,9.0,10.0,91,0.00,,,0.00,meteohub,2013-04-08 16:57:00,
2013-04-08 11:07:00,11.1,9.0,24.12,North,0,8.0,10.0,91,0.00,,,0.00,meteohub,2013-04-08 17:07:00,
2013-04-08 11:12:00,10.6,8.2,24.13,North,0,8.0,10.0,90,0.00,,,0.00,meteohub,2013-04-08 17:12:00,
2013-04-08 11:17:00,10.9,8.8,24.12,North,0,8.0,10.0,91,0.00,,,0.00,meteohub,2013-04-08 17:17:00,
2013-04-08 11:22:00,10.9,8.8,24.13,North,0,8.0,10.0,91,0.00,,,0.00,meteohub,2013-04-08 17:22:00,
2013-04-08 11:32:00,11.5,9.3,24.13,North,0,8.0,8.0,91,0.00,,,0.00,meteohub,2013-04-08 17:32:00,
2013-04-08 11:37:00,11.8,9.7,24.13,North,0,8.0,8.0,91,0.00,,,0.00,meteohub,2013-04-08 17:37:00,
2013-04-08 11:42:00,11.7,9.3,24.14,North,0,8.0,9.0,90,0.00,,,0.00,meteohub,2013-04-08 17:42:00,
2013-04-08 11:47:00,11.3,9.0,24.14,North,0,9.0,9.0,90,0.00,,,0.00,meteohub,2013-04-08 17:47:00,
2013-04-08 11:52:00,11.1,8.8,24.14,North,0,9.0,9.0,90,0.00,,,0.00,meteohub,2013-04-08 17:52:00,
2013-04-08 11:57:00,10.9,8.6,24.14,North,0,9.0,10.0,90,0.00,,,0.00,meteohub,2013-04-08 17:57:00,
2013-04-08 12:07:00,10.8,8.4,24.14,North,0,9.0,10.0,90,0.00,,,0.00,meteohub,2013-04-08 18:07:00,
2013-04-08 12:17:00,11.1,8.8,24.14,North,0,11.0,11.0,90,0.00,,,0.00,meteohub,2013-04-08 18:17:00,
2013-04-08 12:22:00,11.3,8.8,24.14,North,0,10.0,11.0,89,0.00,,,0.00,meteohub,2013-04-08 18:22:00,
2013-04-08 12:32:00,11.3,8.8,24.14,North,0,9.0,11.0,89,0.00,,,0.00,meteohub,2013-04-08 18:32:00,
2013-04-08 12:37:00,11.1,8.6,24.14,North,0,10.0,11.0,89,0.00,,,0.00,meteohub,2013-04-08 18:37:00,
2013-04-08 12:47:00,10.2,7.3,24.15,North,0,10.0,11.0,88,0.00,,,0.00,meteohub,2013-04-08 18:47:00,
2013-04-08 12:52:00,10.6,8.1,24.15,North,0,9.0,11.0,89,0.00,,,0.00,meteohub,2013-04-08 18:52:00,
2013-04-08 12:57:00,11.1,8.6,24.16,North,0,8.0,11.0,89,0.00,,,0.00,meteohub,2013-04-08 18:57:00,
2013-04-08 13:02:00,11.3,8.8,24.16,North,0,8.0,11.0,89,0.00,,,0.00,meteohub,2013-04-08 19:02:00,
2013-04-08 13:07:00,11.3,8.8,24.16,North,0,8.0,10.0,89,0.00,,,0.00,meteohub,2013-04-08 19:07:00,
2013-04-08 13:17:00,11.7,8.8,24.16,North,0,11.0,11.0,88,0.00,,,0.00,meteohub,2013-04-08 19:17:00,
2013-04-08 13:22:00,11.7,8.8,24.16,North,0,10.0,11.0,88,0.00,,,0.00,meteohub,2013-04-08 19:22:00,
2013-04-08 13:27:00,11.5,8.6,24.16,North,0,10.0,11.0,88,0.00,,,0.00,meteohub,2013-04-08 19:27:00,
2013-04-08 13:32:00,11.7,8.8,24.16,North,0,9.0,11.0,88,0.00,,,0.00,meteohub,2013-04-08 19:32:00,
2013-04-08 13:37:00,11.8,9.0,24.17,North,0,8.0,11.0,88,0.00,,,0.00,meteohub,2013-04-08 19:37:00,
2013-04-08 13:47:00,12.9,10.2,24.16,North,0,8.0,10.0,89,0.00,,,0.00,meteohub,2013-04-08 19:47:00,
2013-04-08 13:52:00,13.1,10.2,24.17,North,0,9.0,10.0,88,0.00,,,0.00,meteohub,2013-04-08 19:52:00,
2013-04-08 13:57:00,13.5,10.6,24.17,North,0,8.0,10.0,88,0.00,,,0.00,meteohub,2013-04-08 19:57:00,
2013-04-08 14:02:00,13.6,10.8,24.17,North,0,8.0,10.0,88,0.00,,,0.00,meteohub,2013-04-08 20:02:00,
2013-04-08 14:12:00,13.6,10.8,24.17,North,0,10.0,10.0,88,0.00,,,0.00,meteohub,2013-04-08 20:12:00,
2013-04-08 14:17:00,14.0,11.3,24.16,North,0,10.0,10.0,89,0.00,,,0.00,meteohub,2013-04-08 20:17:00,
2013-04-08 14:22:00,14.0,11.1,24.16,North,0,11.0,11.0,88,0.00,,,0.00,meteohub,2013-04-08 20:22:00,
2013-04-08 14:32:00,13.8,10.9,24.17,North,0,9.0,11.0,88,0.00,,,0.00,meteohub,2013-04-08 20:32:00,
2013-04-08 14:42:00,13.5,10.4,24.17,North,0,10.0,10.0,87,0.00,,,0.00,meteohub,2013-04-08 20:42:00,
2013-04-08 14:47:00,13.3,10.2,24.17,North,0,9.0,10.0,87,0.00,,,0.00,meteohub,2013-04-08 20:47:00,
2013-04-08 14:57:00,13.3,10.4,24.17,North,0,9.0,11.0,88,0.00,,,0.00,meteohub,2013-04-08 20:57:00,
2013-04-08 15:02:00,13.1,10.0,24.17,North,0,10.0,11.0,87,0.00,,,0.00,meteohub,2013-04-08 21:02:00,
2013-04-08 15:07:00,13.1,10.0,24.18,North,0,10.0,10.0,87,0.00,,,0.00,meteohub,2013-04-08 21:07:00,
2013-04-08 15:12:00,13.5,10.6,24.17,North,0,10.0,10.0,88,0.00,,,0.00,meteohub,2013-04-08 21:12:00,
2013-04-08 15:17:00,13.3,10.4,24.18,North,0,10.0,10.0,88,0.00,,,0.00,meteohub,2013-04-08 21:17:00,
2013-04-08 15:22:00,13.3,10.4,24.18,North,0,10.0,10.0,88,0.00,,,0.00,meteohub,2013-04-08 21:22:00,
2013-04-08 15:27:00,13.3,10.4,24.18,North,0,10.0,10.0,88,0.00,,,0.00,meteohub,2013-04-08 21:27:00,
2013-04-08 15:32:00,13.3,10.4,24.18,North,0,10.0,11.0,88,0.00,,,0.00,meteohub,2013-04-08 21:32:00,
2013-04-08 15:37:00,12.9,10.0,24.18,North,0,11.0,11.0,88,0.00,,,0.00,meteohub,2013-04-08 21:37:00,
2013-04-08 15:47:00,13.1,10.2,24.18,North,0,9.0,11.0,88,0.00,,,0.00,meteohub,2013-04-08 21:47:00,
2013-04-08 15:52:00,12.9,10.0,24.18,North,0,11.0,11.0,88,0.00,,,0.00,meteohub,2013-04-08 21:52:00,
2013-04-08 15:57:00,12.6,9.7,24.19,North,0,9.0,11.0,88,0.00,,,0.00,meteohub,2013-04-08 21:57:00,
2013-04-08 16:02:00,12.4,9.5,24.19,North,0,8.0,11.0,88,0.00,,,0.00,meteohub,2013-04-08 22:02:00,
2013-04-08 16:07:00,12.4,9.5,24.18,North,0,8.0,11.0,88,0.00,,,0.00,meteohub,2013-04-08 22:07:00,
2013-04-08 16:17:00,12.9,10.0,24.19,North,0,8.0,10.0,88,0.00,,,0.00,meteohub,2013-04-08 22:17:00,
2013-04-08 16:22:00,12.6,9.7,24.19,North,0,9.0,10.0,88,0.00,,,0.00,meteohub,2013-04-08 22:22:00,
2013-04-08 16:27:00,12.7,10.0,24.19,North,0,9.0,10.0,89,0.00,,,0.00,meteohub,2013-04-08 22:27:00,
2013-04-08 16:32:00,12.7,10.0,24.19,North,0,8.0,10.0,89,0.00,,,0.00,meteohub,2013-04-08 22:32:00,
2013-04-08 16:37:00,12.9,10.2,24.19,North,0,9.0,10.0,89,0.00,,,0.00,meteohub,2013-04-08 22:37:00,
2013-04-08 16:42:00,12.9,10.2,24.20,North,0,8.0,10.0,89,0.00,,,0.00,meteohub,2013-04-08 22:42:00,
2013-04-08 16:52:00,12.6,9.9,24.20,North,0,8.0,9.0,89,0.00,,,0.00,meteohub,2013-04-08 22:52:00,
2013-04-08 16:57:00,12.2,9.5,24.20,North,0,8.0,8.0,89,0.00,,,0.00,meteohub,2013-04-08 22:57:00,
2013-04-08 17:02:00,12.2,9.5,24.20,North,0,8.0,9.0,89,0.00,,,0.00,meteohub,2013-04-08 23:02:00,
2013-04-08 17:07:00,12.2,9.5,24.20,North,0,8.0,9.0,89,0.00,,,0.00,meteohub,2013-04-08 23:07:00,
2013-04-08 17:12:00,11.7,9.1,24.20,North,0,8.0,9.0,89,0.00,,,0.00,meteohub,2013-04-08 23:12:00,
2013-04-08 17:17:00,11.5,9.1,24.21,North,0,8.0,8.0,90,0.00,,,0.00,meteohub,2013-04-08 23:17:00,
2013-04-08 17:22:00,11.5,9.1,24.21,North,0,8.0,8.0,90,0.00,,,0.00,meteohub,2013-04-08 23:22:00,
2013-04-08 17:27:00,11.5,9.1,24.21,North,0,8.0,8.0,90,0.00,,,0.00,meteohub,2013-04-08 23:27:00,
2013-04-08 17:32:00,11.5,9.1,24.21,North,0,8.0,8.0,90,0.00,,,0.00,meteohub,2013-04-08 23:32:00,
2013-04-08 17:37:00,11.5,9.1,24.22,North,0,8.0,8.0,90,0.00,,,0.00,meteohub,2013-04-08 23:37:00,
2013-04-08 17:42:00,11.7,9.5,24.22,North,0,8.0,8.0,91,0.00,,,0.00,meteohub,2013-04-08 23:42:00,
2013-04-08 17:47:00,11.7,9.5,24.22,North,0,8.0,8.0,91,0.00,,,0.00,meteohub,2013-04-08 23:47:00,
2013-04-08 17:52:00,11.8,9.7,24.22,North,0,8.0,8.0,91,0.00,,,0.00,meteohub,2013-04-08 23:52:00,
2013-04-08 17:57:00,11.8,9.7,24.22,North,0,8.0,8.0,91,0.00,,,0.00,meteohub,2013-04-08 23:57:00,
2013-04-08 18:02:00,11.8,9.7,24.22,North,0,7.0,8.0,91,0.00,,,0.00,meteohub,2013-04-09 00:02:00,
2013-04-08 18:12:00,11.8,9.7,24.22,North,0,7.0,8.0,91,0.00,,,0.00,meteohub,2013-04-09 00:12:00,
2013-04-08 18:17:00,11.8,9.7,24.22,North,0,7.0,8.0,91,0.00,,,0.00,meteohub,2013-04-09 00:17:00,
2013-04-08 18:22:00,11.7,9.5,24.23,North,0,6.0,8.0,91,0.00,,,0.00,meteohub,2013-04-09 00:22:00,
2013-04-08 18:27:00,11.5,9.3,24.23,North,0,8.0,8.0,91,0.00,,,0.00,meteohub,2013-04-09 00:27:00,
2013-04-08 18:37:00,11.3,9.1,24.23,North,0,7.0,8.0,91,0.00,,,0.00,meteohub,2013-04-09 00:37:00,
2013-04-08 18:42:00,11.3,9.1,24.23,North,0,7.0,8.0,91,0.00,,,0.00,meteohub,2013-04-09 00:42:00,
2013-04-08 18:47:00,11.3,9.1,24.23,North,0,7.0,8.0,91,0.00,,,0.00,meteohub,2013-04-09 00:47:00,
2013-04-08 18:57:00,11.1,9.0,24.23,North,0,5.0,7.0,91,0.00,,,0.00,meteohub,2013-04-09 00:57:00,
2013-04-08 19:07:00,11.1,9.0,24.23,North,0,7.0,7.0,91,0.00,,,0.00,meteohub,2013-04-09 01:07:00,
2013-04-08 19:12:00,10.8,8.6,24.23,North,0,7.0,7.0,91,0.00,,,0.00,meteohub,2013-04-09 01:12:00,
2013-04-08 19:22:00,10.4,8.2,24.23,North,0,6.0,8.0,91,0.00,,,0.00,meteohub,2013-04-09 01:22:00,
2013-04-08 19:27:00,10.2,8.1,24.23,North,0,5.0,8.0,91,0.00,,,0.00,meteohub,2013-04-09 01:27:00,
2013-04-08 19:37:00,10.0,7.9,24.24,North,0,5.0,7.0,91,0.00,,,0.00,meteohub,2013-04-09 01:37:00,
2013-04-08 19:47:00,9.9,7.7,24.24,North,0,5.0,5.0,91,0.00,,,0.00,meteohub,2013-04-09 01:47:00,
2013-04-08 19:52:00,9.7,7.5,24.24,North,0,4.0,5.0,91,0.00,,,0.00,meteohub,2013-04-09 01:52:00,
2013-04-08 19:57:00,9.5,7.3,24.25,North,0,4.0,5.0,91,0.00,,,0.00,meteohub,2013-04-09 01:57:00,
2013-04-08 20:02:00,9.5,7.3,24.25,North,0,4.0,5.0,91,0.00,,,0.00,meteohub,2013-04-09 02:02:00,
2013-04-08 20:07:00,9.5,7.3,24.25,North,0,4.0,4.0,91,0.00,,,0.00,meteohub,2013-04-09 02:07:00,
2013-04-08 20:12:00,9.5,7.3,24.25,North,0,4.0,4.0,91,0.00,,,0.00,meteohub,2013-04-09 02:12:00,
2013-04-08 20:17:00,9.5,7.3,24.25,North,0,4.0,4.0,91,0.00,,,0.00,meteohub,2013-04-09 02:17:00,
2013-04-08 20:22:00,9.5,7.7,24.26,North,0,3.0,4.0,92,0.00,,,0.00,meteohub,2013-04-09 02:22:00,
2013-04-08 20:27:00,9.5,7.3,24.26,North,0,4.0,4.0,91,0.00,,,0.00,meteohub,2013-04-09 02:27:00,
2013-04-08 20:32:00,9.5,7.7,24.27,North,0,3.0,4.0,92,0.00,,,0.00,meteohub,2013-04-09 02:32:00,
2013-04-08 20:37:00,9.7,7.9,24.27,North,0,3.0,4.0,92,0.00,,,0.00,meteohub,2013-04-09 02:37:00,
2013-04-08 20:42:00,9.5,7.7,24.27,North,0,3.0,4.0,92,0.00,,,0.00,meteohub,2013-04-09 02:42:00,
2013-04-08 20:47:00,9.5,7.7,24.27,North,0,4.0,4.0,92,0.00,,,0.00,meteohub,2013-04-09 02:47:00,
2013-04-08 20:52:00,9.5,7.7,24.27,North,0,3.0,4.0,92,0.00,,,0.00,meteohub,2013-04-09 02:52:00,
2013-04-08 20:57:00,9.5,7.7,24.27,North,0,3.0,4.0,92,0.00,,,0.00,meteohub,2013-04-09 02:57:00,
2013-04-08 21:07:00,9.5,7.7,24.27,North,0,4.0,4.0,92,0.00,,,0.00,meteohub,2013-04-09 03:07:00,
2013-04-08 21:12:00,9.3,7.5,24.28,North,0,3.0,4.0,92,0.00,,,0.00,meteohub,2013-04-09 03:12:00,
2013-04-08 21:17:00,9.5,7.7,24.28,North,0,4.0,4.0,92,0.00,,,0.00,meteohub,2013-04-09 03:17:00,
2013-04-08 21:27:00,9.3,7.5,24.28,North,0,3.0,4.0,92,0.00,,,0.00,meteohub,2013-04-09 03:27:00,
2013-04-08 21:32:00,9.3,7.5,24.28,North,0,3.0,4.0,92,0.00,,,0.00,meteohub,2013-04-09 03:32:00,
2013-04-08 21:37:00,9.3,7.5,24.28,North,0,3.0,4.0,92,0.00,,,0.00,meteohub,2013-04-09 03:37:00,
2013-04-08 21:47:00,9.3,7.5,24.28,North,0,2.0,3.0,92,0.00,,,0.00,meteohub,2013-04-09 03:47:00,
2013-04-08 21:52:00,9.1,7.3,24.28,North,0,2.0,3.0,92,0.00,,,0.00,meteohub,2013-04-09 03:52:00,
2013-04-08 22:02:00,9.0,6.8,24.28,North,0,2.0,3.0,91,0.00,,,0.00,meteohub,2013-04-09 04:02:00,
2013-04-08 22:07:00,9.0,6.8,24.28,North,0,2.0,3.0,91,0.00,,,0.00,meteohub,2013-04-09 04:07:00,
2013-04-08 22:12:00,9.0,7.2,24.29,North,0,2.0,3.0,92,0.00,,,0.00,meteohub,2013-04-09 04:12:00,
2013-04-08 22:17:00,9.0,7.2,24.28,North,0,2.0,2.0,92,0.00,,,0.00,meteohub,2013-04-09 04:17:00,
2013-04-08 22:22:00,9.1,7.3,24.28,North,0,2.0,2.0,92,0.00,,,0.00,meteohub,2013-04-09 04:22:00,
2013-04-08 22:27:00,9.1,7.3,24.28,North,0,3.0,3.0,92,0.00,,,0.00,meteohub,2013-04-09 04:27:00,
2013-04-08 22:32:00,9.3,7.5,24.29,North,0,2.0,3.0,92,0.00,,,0.00,meteohub,2013-04-09 04:32:00,
2013-04-08 22:37:00,9.5,7.7,24.29,North,0,2.0,3.0,92,0.00,,,0.00,meteohub,2013-04-09 04:37:00,
2013-04-08 22:47:00,9.7,7.9,24.29,North,0,3.0,3.0,92,0.00,,,0.00,meteohub,2013-04-09 04:47:00,
2013-04-08 22:52:00,9.9,8.1,24.29,North,0,2.0,3.0,92,0.00,,,0.00,meteohub,2013-04-09 04:52:00,
2013-04-08 23:02:00,9.9,8.1,24.29,North,0,2.0,3.0,92,0.00,,,0.00,meteohub,2013-04-09 05:02:00,
2013-04-08 23:12:00,9.9,8.1,24.29,North,0,2.0,2.0,92,0.00,,,0.00,meteohub,2013-04-09 05:12:00,
2013-04-08 23:17:00,9.9,8.1,24.29,North,0,3.0,3.0,92,0.00,,,0.00,meteohub,2013-04-09 05:17:00,
2013-04-08 23:22:00,9.9,8.1,24.29,North,0,2.0,3.0,92,0.00,,,0.00,meteohub,2013-04-09 05:22:00,
2013-04-08 23:27:00,9.9,8.1,24.29,North,0,2.0,3.0,92,0.00,,,0.00,meteohub,2013-04-09 05:27:00,
2013-04-08 23:37:00,9.9,8.1,24.29,North,0,2.0,2.0,92,0.00,,,0.00,meteohub,2013-04-09 05:37:00,
2013-04-08 23:42:00,9.9,8.1,24.30,North,0,2.0,2.0,92,0.00,,,0.00,meteohub,2013-04-09 05:42:00,
2013-04-08 23:52:00,10.0,8.2,24.29,North,0,2.0,2.0,92,0.00,,,0.00,meteohub,2013-04-09 05:52:00,
2013-04-08 23:57:00,10.2,8.4,24.29,North,0,1.0,2.0,92,0.00,,,0.00,meteohub,2013-04-09 05:57:00,